DW8253 Weather Reports


Display with metric or nautical units.
time (UTC)temp
F
wind
direction
speed
MPH
gust
MPH
rain 1hr
in
rain 24hr
in
rain mn
in
humidity
%
barometer
mb
20260505182842 51 41 12.0 18.0 0.00 0.28 0.08 86 866.7
20260505182525 51 64 11.0 18.0 0.00 0.28 0.08 82 866.8
20260505181601 51 56 13.0 19.0 0.00 0.28 0.08 84 866.7
20260505175522 52 47 12.0 22.0 0.00 0.28 0.08 85 866.8
20260505174522 52 43 13.0 22.0 0.00 0.28 0.08 85 866.8
20260505174448 52 44 11.0 15.0 0.01 0.28 0.08 84 866.8
20260505172523 52 51 13.0 21.0 0.01 0.28 0.08 83 866.8
20260505171523 53 58 12.0 19.0 0.02 0.28 0.08 82 866.8
20260505170523 53 48 11.0 15.0 0.02 0.28 0.08 81 866.9
20260505165521 53 49 12.0 16.0 0.02 0.28 0.08 79 866.9
20260505164521 53 49 14.0 21.0 0.02 0.28 0.08 80 866.9
20260505163521 54 36 16.0 25.0 0.02 0.27 0.07 78 866.9
20260505162522 54 60 16.0 25.0 0.02 0.26 0.07 78 866.9
20260505161523 55 56 13.0 17.0 0.02 0.26 0.06 76 867.0
20260505160522 55 40 13.0 20.0 0.02 0.26 0.06 77 867.0
20260505152518 56 47 13.0 23.0 0.02 0.25 0.05 71 867.1
20260505151520 56 51 13.0 21.0 0.02 0.24 0.04 72 867.1
20260505150520 56 50 13.0 20.0 0.02 0.24 0.04 73 867.1
20260505140518 57 54 14.0 20.0 0.02 0.22 0.02 77 867.2
20260505124511 63 39 14.0 22.0 0.00 0.20 0.00 85 867.6
20260505123511 64 54 13.0 21.0 0.00 0.20 0.00 91 867.7
20260505122511 63 35 10.0 16.0 0.00 0.20 0.00 92 867.7
20260505121512 63 43 9.0 13.0 0.00 0.20 0.00 93 867.7
20260505120511 62 21 8.0 14.0 0.00 0.20 0.00 92 867.7
20260505115511 61 0 6.0 9.0 0.00 0.20 0.00 88 867.5
20260505114510 60 34 6.0 10.0 0.00 0.20 0.00 79 867.4
20260505113505 60 18 9.0 13.0 0.00 0.20 0.00 70 867.4
20260505112506 60 2 6.0 9.0 0.00 0.20 0.00 75 867.4
20260505111505 61 337 6.0 8.0 0.00 0.20 0.00 77 867.5
20260505110505 61 355 5.0 8.0 0.00 0.20 0.00 76 867.5
20260505110419 62 318 4.0 7.0 0.00 0.20 0.00 77 867.5
20260505101501 65 237 7.0 9.0 0.00 0.20 0.00 78 867.8
20260505100501 65 241 6.0 8.0 0.00 0.20 0.00 78 867.8
20260505095501 65 231 6.0 8.0 0.00 0.20 0.00 78 867.8
20260505094501 66 249 4.0 7.0 0.00 0.20 0.00 76 867.9
20260505093455 66 223 6.0 10.0 0.00 0.20 0.00 75 867.9
20260505092456 67 221 7.0 10.0 0.00 0.20 0.00 74 867.9
20260505091456 68 220 6.0 9.0 0.00 0.20 0.00 72 868.0
20260505090456 69 204 7.0 10.0 0.00 0.20 0.00 71 868.1
20260505085449 69 209 6.0 9.0 0.00 0.20 0.00 71 868.1
20260505084450 69 218 5.0 8.0 0.00 0.20 0.00 71 868.1
20260505083449 69 221 7.0 10.0 0.00 0.20 0.00 70 868.2
20260505082444 70 232 7.0 12.0 0.00 0.20 0.00 71 868.2
20260505081442 70 222 9.0 13.0 0.00 0.20 0.00 70 868.2
20260505080442 70 232 8.0 12.0 0.00 0.20 0.00 71 868.2
20260505075927 71 238 9.0 13.0 0.00 0.20 0.00 70 868.3
20260505074442 71 230 7.0 11.0 0.00 0.20 0.00 69 868.3
20260505073442 72 232 8.0 12.0 0.00 0.20 0.00 69 868.3
20260505072438 72 233 9.0 13.0 0.00 0.20 0.00 67 868.5
20260505071438 73 251 9.0 15.0 0.00 0.20 0.00 67 868.5
20260505070439 73 228 9.0 13.0 0.00 0.20 0.00 66 868.5
20260505065439 73 237 9.0 14.0 0.00 0.20 0.00 67 868.6
20260505064439 73 228 9.0 14.0 0.00 0.20 0.00 66 868.6
20260505063438 73 219 9.0 14.0 0.00 0.20 0.00 68 868.5
20260505062914 73 230 8.0 12.0 0.00 0.20 0.00 68 868.5
20260505061433 73 221 8.0 13.0 0.00 0.20 0.00 69 868.5
20260505060434 73 227 8.0 12.0 0.00 0.20 0.00 69 868.5
20260505055908 73 221 9.0 13.0 0.00 0.20 0.00 69 868.6
20260505054434 73 221 8.0 13.0 0.00 0.20 0.00 69 868.6
20260505053432 74 216 10.0 15.0 0.00 0.20 0.00 68 868.6
20260505052433 74 234 8.0 12.0 0.00 0.20 0.00 68 868.6
20260505051433 74 226 8.0 13.0 0.00 0.20 0.00 67 868.6
20260505050432 75 227 9.0 13.0 0.00 0.20 0.00 66 868.7
20260505041429 76 220 13.0 20.0 0.00 0.20 0.20 64 868.8
20260505041407 76 210 17.0 26.0 0.00 0.20 0.20 64 868.8
20260505035429 77 214 19.0 26.0 0.01 0.20 0.20 63 868.8
20260505034430 77 225 15.0 19.0 0.01 0.20 0.20 62 868.9
20260505033428 77 206 15.0 21.0 0.00 0.20 0.20 63 868.9
20260505032423 77 218 14.0 19.0 0.01 0.20 0.20 62 868.9
20260505031424 77 206 14.0 19.0 0.01 0.20 0.20 62 868.9
20260505030424 77 219 15.0 21.0 0.01 0.20 0.20 62 868.9
20260505025425 78 214 17.0 23.0 0.00 0.20 0.19 60 869.0
20260505024424 78 216 19.0 26.0 0.00 0.20 0.19 60 869.0
20260505023902 79 216 16.0 23.0 0.01 0.20 0.19 60 869.0
20260505022857 79 224 15.0 26.0 0.01 0.19 0.19 59 869.0
20260505021423 79 226 18.0 25.0 0.01 0.19 0.19 57 869.1
20260505020905 79 222 16.0 24.0 0.01 0.19 0.19 57 869.1
20260505015424 80 221 14.0 21.0 0.01 0.19 0.19 56 869.1
20260505014424 81 217 15.0 23.0 0.01 0.19 0.19 53 869.2
20260505013425 81 218 11.0 21.0 0.02 0.19 0.19 51 869.2
20260505012905 81 222 7.0 10.0 0.02 0.19 0.18 51 869.2
20260505011418 81 222 12.0 29.0 0.04 0.19 0.18 52 869.2
20260505010419 82 195 11.0 22.0 0.05 0.19 0.18 51 869.2
20260505005415 82 198 11.0 25.0 0.06 0.19 0.18 51 869.3
20260505004853 83 211 19.0 29.0 0.07 0.19 0.18 50 869.3
20260505003848 83 195 19.0 28.0 0.08 0.17 0.17 49 869.3
20260505002413 83 197 22.0 29.0 0.08 0.16 0.16 47 869.4
20260505001857 84 201 21.0 29.0 0.08 0.15 0.14 45 869.4
20260505000413 84 192 19.0 26.0 0.08 0.13 0.13 47 869.4
20260504235414 85 209 17.0 31.0 0.09 0.13 0.12 45 869.5
20260504234410 85 197 23.0 31.0 0.09 0.12 0.11 41 869.5
20260504233411 86 208 21.0 33.0 0.06 0.09 0.08 39 869.6
20260504232854 87 215 21.0 30.0 0.06 0.08 0.07 36 869.6
20260504231411 87 216 19.0 26.0 0.05 0.07 0.06 34 869.7
20260504231328 88 218 19.0 25.0 0.04 0.06 0.05 34 869.7
20260504225411 88 218 18.0 25.0 0.02 0.04 0.04 33 869.8
20260504224409 88 216 17.0 25.0 0.01 0.03 0.02 32 869.8
20260504223409 89 212 21.0 26.0 0.01 0.03 0.02 32 869.8
20260504222409 89 209 20.0 26.0 0.00 0.02 0.02 32 869.9
20260504221410 90 229 16.0 26.0 0.00 0.02 0.01 30 870.0
20260504220410 91 234 11.0 17.0 0.00 0.02 0.01 27 870.0
20260504215410 91 243 13.0 19.0 0.00 0.02 0.01 25 870.1
20260504214856 90 226 12.0 19.0 0.00 0.02 0.01 25 870.0
20260504213407 90 253 10.0 18.0 0.00 0.02 0.01 27 870.0
20260504212407 90 234 11.0 18.0 0.00 0.02 0.01 27 870.0
20260504211407 90 237 11.0 20.0 0.00 0.02 0.01 26 870.0
20260504210407 89 222 13.0 22.0 0.01 0.02 0.01 27 869.9
20260504205407 90 245 11.0 17.0 0.01 0.03 0.01 28 870.0
20260504204407 89 252 12.0 24.0 0.01 0.03 0.01 28 870.0
20260504203405 88 245 15.0 24.0 0.01 0.03 0.01 30 869.9
20260504202406 88 235 13.0 20.0 0.00 0.02 0.01 31 869.8
20260504201405 87 231 12.0 20.0 0.00 0.03 0.01 31 869.8
20260504201324 87 229 14.0 20.0 0.00 0.04 0.00 33 869.7
20260504195406 87 224 13.0 19.0 0.00 0.04 0.00 33 869.7
20260504194402 86 227 13.0 19.0 0.00 0.04 0.00 34 869.7
20260504193402 85 237 14.0 21.0 0.00 0.04 0.00 36 869.6
20260504192402 84 198 12.0 19.0 0.00 0.04 0.00 36 869.5
20260504191402 83 222 12.0 20.0 0.00 0.04 0.00 37 869.5
20260504190402 82 233 13.0 17.0 0.00 0.04 0.00 39 869.4
20260504185403 82 237 13.0 18.0 0.00 0.04 0.00 38 869.4
20260504184402 81 218 14.0 20.0 0.00 0.04 0.00 39 869.3